Carson City, NV

2:42 PM PST on January 22, 2018 (GMT -0800)
Carson

Weather History for KCXP - March, 2014

Change the Weather History Date:

Saturday, March 29, 2014

  Actual Average Record
Temperature  
Mean Temperature 46 °F -  
Max Temperature 53 °F 59 °F 73 °F (2015)
Min Temperature 37 °F 27 °F 28 °F (2017)
Degree Days  
Heating Degree Days 19    
Moisture  
Dew Point 31 °F    
Average Humidity 53    
Maximum Humidity 81    
Minimum Humidity 37    
Precipitation  
Precipitation 0.00 in - - ()
Sea Level Pressure  
Sea Level Pressure 29.97 in    
Wind  
Wind Speed 12 mph (SSW)    
Max Wind Speed 20 mph    
Max Gust Speed 41 mph    
Visibility 10 miles    
Events      
Averages and records for this station are not official NWS values.
T = Trace of Precipitation, MM = Missing Value Source: NWS Daily Summary

Daily Weather History Graph

Daily Weather History Graph

Search for Another Location

Airport or City:

Trip Planner

Search our weather history database for the weather conditions in past years. The results will help you decide how hot, cold, wet, or windy it might be!

Date:

Astronomy

Mar. 29, 2014 Rise Set
Actual Time 6:47 AM PDT 7:19 PM PDT
Civil Twilight 6:21 AM PDT 7:46 PM PDT
Nautical Twilight 5:49 AM PDT 8:18 PM PDT
Astronomical Twilight 5:17 AM PDT 8:51 PM PDT
Moon 5:59 AM PDT (3/29) 6:30 PM PDT (3/29)
Length of Visible Light 13h 25m
Length of Day
12h 31m
Waning Crescent, 1% of the Moon is Illuminated
Mar 29
Waning Crescent
Mar 30
New
Apr 7
First Quarter
Apr 15
Full
Apr 22
Last Quarter

Hourly Weather History & Observations

Time (PDT) Temp. Windchill Dew Point Humidity Pressure Visibility Wind Dir Wind Speed Gust Speed Precip Events Conditions
12:15 AM 50.0 °F - 24.8 °F 37% 30.05 in 10.0 mi SSE 13.8 mph 24.2 mph N/A   Overcast
12:35 AM 50.0 °F - 24.8 °F 37% 30.04 in 10.0 mi South 6.9 mph 17.3 mph N/A   Mostly Cloudy
12:55 AM 48.2 °F - 26.6 °F 43% 30.04 in 10.0 mi SSE 4.6 mph 19.6 mph N/A   Partly Cloudy
1:15 AM 50.0 °F - 26.6 °F 40% 30.04 in 10.0 mi SSW 10.4 mph 17.3 mph N/A   Clear
1:35 AM 48.2 °F - 26.6 °F 43% 30.04 in 10.0 mi South 8.1 mph - N/A   Clear
1:55 AM 48.2 °F - 26.6 °F 43% 30.03 in 10.0 mi SSW 11.5 mph 27.6 mph N/A   Clear
2:15 AM 48.2 °F - 28.4 °F 46% 30.03 in 10.0 mi SSW 8.1 mph 27.6 mph N/A   Clear
2:35 AM 48.2 °F - 28.4 °F 46% 30.02 in 10.0 mi South 8.1 mph 17.3 mph N/A   Clear
2:55 AM 48.2 °F - 28.4 °F 46% 30.01 in 10.0 mi SSW 6.9 mph 26.5 mph N/A   Clear
3:15 AM 50.0 °F - 30.2 °F 47% 30.00 in 10.0 mi SW 12.7 mph 31.1 mph N/A   Clear
3:35 AM 50.0 °F - 30.2 °F 47% 30.01 in 10.0 mi SW 17.3 mph 34.5 mph N/A   Clear
3:55 AM 50.0 °F - 32.0 °F 50% 30.01 in 10.0 mi SW 13.8 mph 32.2 mph N/A   Clear
4:15 AM 50.0 °F - 32.0 °F 50% 30.00 in 10.0 mi SSW 16.1 mph 26.5 mph N/A   Clear
4:35 AM 50.0 °F - 32.0 °F 50% 29.99 in 10.0 mi SSW 17.3 mph 31.1 mph N/A   Clear
4:55 AM 50.0 °F - 32.0 °F 50% 29.99 in 10.0 mi SSW 19.6 mph 32.2 mph N/A   Clear
5:15 AM 50.0 °F - 30.2 °F 47% 29.99 in 10.0 mi SSW 16.1 mph 34.5 mph N/A   Clear
5:35 AM 50.0 °F - 28.4 °F 43% 29.99 in 10.0 mi SSW 18.4 mph 38.0 mph N/A   Clear
5:55 AM 50.0 °F - 28.4 °F 43% 29.98 in 10.0 mi SSW 11.5 mph 35.7 mph N/A   Clear
6:15 AM 50.0 °F - 28.4 °F 43% 29.99 in 10.0 mi SSW 9.2 mph 28.8 mph N/A   Clear
6:35 AM 50.0 °F - 28.4 °F 43% 29.99 in 10.0 mi SSW 11.5 mph 27.6 mph N/A   Clear
6:55 AM 50.0 °F - 30.2 °F 47% 29.99 in 10.0 mi SSW 10.4 mph 24.2 mph N/A   Clear
7:15 AM 50.0 °F - 30.2 °F 47% 30.00 in 10.0 mi SSW 13.8 mph 27.6 mph N/A   Clear
7:35 AM 50.0 °F - 30.2 °F 47% 29.99 in 10.0 mi South 11.5 mph 29.9 mph N/A   Clear
7:55 AM 50.0 °F - 30.2 °F 47% 29.99 in 10.0 mi SSW 15.0 mph 26.5 mph N/A   Clear
8:15 AM 51.8 °F - 30.2 °F 44% 30.00 in 10.0 mi South 12.7 mph 27.6 mph N/A   Clear
8:35 AM 50.0 °F - 32.0 °F 50% 30.01 in 10.0 mi South 9.2 mph 18.4 mph N/A   Mostly Cloudy
8:55 AM 50.0 °F - 32.0 °F 50% 30.01 in 10.0 mi SSW 19.6 mph 26.5 mph N/A   Mostly Cloudy
9:15 AM 50.0 °F - 32.0 °F 50% 30.00 in 10.0 mi South 10.4 mph 20.7 mph N/A   Partly Cloudy
9:35 AM 50.0 °F - 32.0 °F 50% 30.00 in 10.0 mi SSW 10.4 mph 27.6 mph N/A   Scattered Clouds
9:55 AM 53.6 °F - 28.4 °F 38% 29.99 in 10.0 mi SSW 16.1 mph 29.9 mph N/A   Mostly Cloudy
10:15 AM 53.6 °F - 28.4 °F 38% 29.99 in 10.0 mi SSW 15.0 mph 26.5 mph N/A   Overcast
10:35 AM 53.6 °F - 28.4 °F 38% 30.00 in 10.0 mi SSW 16.1 mph 27.6 mph N/A   Overcast
10:55 AM 51.8 °F - 30.2 °F 44% 30.00 in 10.0 mi SW 13.8 mph 28.8 mph N/A   Overcast
11:15 AM 51.8 °F - 30.2 °F 44% 30.00 in 10.0 mi SW 12.7 mph 27.6 mph N/A   Overcast
11:35 AM 51.8 °F - 30.2 °F 44% 29.99 in 10.0 mi SSW 17.3 mph 25.3 mph N/A   Overcast
11:55 AM 53.6 °F - 28.4 °F 38% 29.99 in 10.0 mi South 16.1 mph 27.6 mph N/A   Overcast
12:15 PM 53.6 °F - 28.4 °F 38% 29.99 in 10.0 mi South 17.3 mph 28.8 mph N/A   Overcast
12:35 PM 51.8 °F - 30.2 °F 44% 29.99 in 10.0 mi SSW 16.1 mph 29.9 mph N/A   Overcast
12:55 PM 51.8 °F - 30.2 °F 44% 29.98 in 10.0 mi SSW 16.1 mph 26.5 mph N/A   Overcast
1:15 PM 51.8 °F - 30.2 °F 44% 29.99 in 10.0 mi SSW 12.7 mph 28.8 mph N/A   Overcast
1:35 PM 51.8 °F - 32.0 °F 47% 29.98 in 10.0 mi SW 16.1 mph 34.5 mph N/A   Overcast
1:55 PM 51.8 °F - 32.0 °F 47% 29.97 in 10.0 mi SW 19.6 mph 33.4 mph N/A   Overcast
2:15 PM 51.8 °F - 32.0 °F 47% 29.97 in 10.0 mi SW 17.3 mph 31.1 mph N/A   Overcast
2:35 PM 51.8 °F - 30.2 °F 44% 29.96 in 10.0 mi SW 12.7 mph 41.4 mph N/A   Overcast
2:55 PM 50.0 °F - 32.0 °F 50% 29.96 in 10.0 mi SW 18.4 mph 29.9 mph N/A   Overcast
3:15 PM 50.0 °F - 32.0 °F 50% 29.96 in 10.0 mi SSW 18.4 mph 31.1 mph N/A   Overcast
3:35 PM 48.2 °F - 32.0 °F 54% 29.95 in 10.0 mi SSW 13.8 mph 24.2 mph N/A   Overcast
3:55 PM 48.2 °F - 32.0 °F 54% 29.93 in 10.0 mi SW 12.7 mph 26.5 mph N/A   Mostly Cloudy
4:15 PM 48.2 °F - 32.0 °F 54% 29.93 in 10.0 mi WSW 15.0 mph 28.8 mph N/A   Scattered Clouds
4:35 PM 48.2 °F - 32.0 °F 54% 29.93 in 10.0 mi SW 10.4 mph 23.0 mph N/A   Partly Cloudy
4:55 PM 46.4 °F 40.4 °F 32.0 °F 57% 29.93 in 10.0 mi West 13.8 mph 23.0 mph N/A   Clear
5:15 PM 44.6 °F 40.7 °F 32.0 °F 61% 29.93 in 10.0 mi WSW 6.9 mph - N/A   Scattered Clouds
5:35 PM 44.6 °F 39.2 °F 32.0 °F 61% 29.93 in 10.0 mi West 10.4 mph 17.3 mph N/A   Mostly Cloudy
5:55 PM 42.8 °F 35.4 °F 32.0 °F 66% 29.93 in 10.0 mi West 15.0 mph 20.7 mph N/A   Overcast
6:15 PM 44.6 °F 40.7 °F 32.0 °F 61% 29.93 in 10.0 mi West 6.9 mph 16.1 mph N/A   Overcast
6:35 PM 44.6 °F 39.2 °F 32.0 °F 61% 29.92 in 10.0 mi SSW 10.4 mph 23.0 mph N/A   Overcast
6:55 PM 41.0 °F 35.8 °F 32.0 °F 70% 29.92 in 10.0 mi South 8.1 mph - N/A   Mostly Cloudy
7:15 PM 41.0 °F 36.4 °F 32.0 °F 70% 29.92 in 10.0 mi SSW 6.9 mph - N/A   Overcast
7:35 PM 41.0 °F 36.4 °F 32.0 °F 70% 29.91 in 10.0 mi South 6.9 mph - N/A   Overcast
7:55 PM 41.0 °F 34.7 °F 32.0 °F 70% 29.90 in 10.0 mi SSW 10.4 mph - N/A   Overcast
8:15 PM 41.0 °F 35.2 °F 32.0 °F 70% 29.91 in 10.0 mi SW 9.2 mph 16.1 mph N/A   Overcast
8:35 PM 41.0 °F 37.1 °F 32.0 °F 70% 29.91 in 10.0 mi SSW 5.8 mph - N/A   Overcast
8:55 PM 41.0 °F 37.1 °F 32.0 °F 70% 29.91 in 10.0 mi SSW 5.8 mph - N/A   Mostly Cloudy
9:15 PM 39.2 °F 35.0 °F 32.0 °F 75% 29.91 in 10.0 mi South 5.8 mph - N/A   Overcast
9:35 PM 39.2 °F - 32.0 °F 75% 29.91 in 10.0 mi Calm Calm - N/A   Mostly Cloudy
9:55 PM 39.2 °F - 32.0 °F 75% 29.91 in 10.0 mi Calm Calm - N/A   Overcast
10:15 PM 39.2 °F 35.9 °F 32.0 °F 75% 29.90 in 10.0 mi SW 4.6 mph - N/A   Overcast
10:35 PM 39.2 °F 35.0 °F 32.0 °F 75% 29.90 in 10.0 mi West 5.8 mph - N/A   Overcast
10:55 PM 39.2 °F 35.9 °F 32.0 °F 75% 29.90 in 10.0 mi SW 4.6 mph - N/A   Overcast
11:15 PM 39.2 °F 37.0 °F 32.0 °F 75% 29.89 in 10.0 mi SSW 3.5 mph - N/A   Overcast
11:35 PM 39.2 °F 37.0 °F 32.0 °F 75% 29.89 in 10.0 mi SSW 3.5 mph - N/A   Overcast
11:55 PM 37.4 °F 33.8 °F 32.0 °F 81% 29.90 in 10.0 mi SSW 4.6 mph - N/A   Overcast